Location: ??????
(38.3184°N, 23.6932°E)
Time: 01:19:12
(UTC+00:00)

Cosmos 2263 Rocket - Pass Details

Date: 16 October 2021
Orbit: 825 x 847 km, 71.0° (Epoch: 04 December)

Event Time Altitude Azimuth Distance (km) Brightness Sun altitude
Rises 19:06:50 0° 320° (NW) 3,367 6.0 -39.6°
Reaches altitude 10° 19:09:55 10° 303° (WNW) 2,429 5.2 -40.1°
Enters shadow 19:13:08 19° 268° (W) 1,886 4.4 -40.7°
